Weather in Novorossiyskoye

Russia / Republic of Khakassia     53°22′44″N   91°35′56″E
temp.,
°C
wind,
m/s
gust,
m/s
humid.,
%
clouds,
%
prec.,
mm/h
press.,
hPa
HPBL,
m
20 may, fri
fri2001:00+22wsw81439100 0.0 1007646
04:00+17sw81369100 1.6 1012606
07:00+17wsw6967100 2.1 1015507
10:00+17s4565100 1.9 1016349
13:00+19ssw6753100 3.1 10161050
16:00+21sse6644100 0.0 10141437
19:00+20se685047 0.0 1013585
22:00+14ese36735 0.0 1014114
21 may, sat
sat2101:00+13sse017493 0.0 101512
04:00+12sw11696 0.0 101611
07:00+16sw395696 0.0 1016301
10:00+22wsw683714 0.0 10151521
13:00+24sw7827100 0.0 10142626
16:00+26wsw572468 0.0 10112897
19:00+25wnw24305 0.0 1010204
22:00+19n11404 0.0 101111
22 may, sun
sun2201:00+16e22475 0.0 101111
04:00+14ene22545 0.0 100911
07:00+16e235267 0.0 1008159
10:00+22e3539100 0.0 1006734
13:00+26e4431100 0.0 10031216
16:00+28ne2228100 0.0 10021195
19:00+26nnw2237100 0.0 100246
22:00+22wsw1140100 0.0 100512
23 may, mon
mon2301:00+20sw4105199 0.1 1006228
04:00+20w234897 0.1 100858
07:00+19w235379 0.1 101158
10:00+24wsw444362 0.0 1013998
13:00+27wsw233676 0.0 10132404
16:00+16nw71193100 21.8 1019435
19:00+14nnw61083100 26.1 1022634
22:00+12n3769100 0.1 1024541
24 may, tue
tue2401:00+11nnw2372100 0.1 1023300
04:00+11nnw228195 0.1 1022212
07:00+12ene128012 0.2 1022320
10:00+15ene237027 0.0 1020707
13:00+19ene226023 0.0 10171044
16:00+22ne2351100 0.0 10151104
19:00+23nne2357100 0.0 1014283
22:00+19nnw1166100 0.0 101411